Location: Newark
(41.1192°N, 81.5292°W)
Time: 13:43:42
(UTC+00:00)

N. Korean satellite - Pass Details

Date: 17 November 2019
Orbit: 456 x 506 km, 97.2° (Epoch: 05 December)

Event Time Altitude Azimuth Distance (km) Brightness Sun altitude
Rises 11:42:23 0° 5° (N) 2,616 10.1 -6.7°
Reaches altitude 10° 11:44:32 10° 359° (N) 1,724 9.1 -6.3°
Maximum altitude 11:48:05 44° 286° (WNW) 701 6.9 -5.7°
Drops below altitude 10° 11:51:34 10° 214° (SSW) 1,692 9.2 -5.1°
Sets 11:53:41 0° 207° (SSW) 2,563 10.2 -4.7°
